The Dalles, WA

1:53 AM PST on November 14, 2019 (GMT -0800)
Columbia Gorge Regional-The Dalles

Weather History for KDLS - September, 2019

Change the Weather History Date:

Saturday, September 14, 2019

  Actual Average Record
Temperature  
Mean Temperature 68 °F -  
Max Temperature 80 °F 80 °F 97 °F (2013)
Min Temperature 55 °F 50 °F 37 °F (1952)
Cooling Degree Days 2    
Growing Degree Days 18 (Base 50)    
Moisture  
Dew Point 52 °F    
Average Humidity 58    
Maximum Humidity 83    
Minimum Humidity 38    
Precipitation  
Precipitation 0.00 in - - ()
Sea Level Pressure  
Sea Level Pressure 29.92 in    
Wind  
Wind Speed 8 mph (WNW)    
Max Wind Speed 20 mph    
Max Gust Speed 29 mph    
Visibility 10 miles    
Events      
Averages and records for this station are not official NWS values.
T = Trace of Precipitation, MM = Missing Value Source: NWS Daily Summary

Daily Weather History Graph

Daily Weather History Graph

Search for Another Location

Airport or City:

Astronomy

Sep. 14, 2019 Rise Set
Actual Time 6:41 AM PDT 7:17 PM PDT
Civil Twilight 6:11 AM PDT 7:47 PM PDT
Nautical Twilight 5:36 AM PDT 8:23 PM PDT
Astronomical Twilight 4:59 AM PDT 8:59 PM PDT
Moon 8:01 PM PDT 6:58 AM PDT
Length of Visible Light 13h 36m
Length of Day
12h 36m
Full, 100% of the Moon is Illuminated
Sep 14
Full
Sep 21
Last Quarter
Sep 28
New
Oct 5
First Quarter
Oct 13
Full

Hourly Weather History & Observations

Time (PDT) Temp. Heat Index Dew Point Humidity Pressure Visibility Wind Dir Wind Speed Gust Speed Precip Events Conditions
12:53 AM 66.9 °F - 52.0 °F 59% 30.04 in 10.0 mi West 11.5 mph - N/A   Clear
1:53 AM 62.1 °F - 53.1 °F 72% 30.04 in 10.0 mi Calm Calm - N/A   Clear
2:53 AM 62.1 °F - 51.1 °F 67% 30.03 in 10.0 mi ENE 4.6 mph - N/A   Clear
3:53 AM 59.0 °F - 50.0 °F 72% 30.02 in 10.0 mi Calm Calm - N/A   Clear
4:53 AM 57.9 °F - 48.9 °F 72% 30.01 in 10.0 mi East 5.8 mph - N/A   Clear
5:53 AM 57.0 °F - 48.9 °F 74% 30.02 in 10.0 mi SE 3.5 mph - N/A   Clear
6:53 AM 55.0 °F - 50.0 °F 83% 30.01 in 10.0 mi ESE 3.5 mph - N/A   Clear
7:53 AM 59.0 °F - 51.1 °F 75% 30.02 in 10.0 mi SE 5.8 mph - N/A   Clear
8:53 AM 62.1 °F - 53.1 °F 72% 30.02 in 10.0 mi Calm Calm - N/A   Clear
9:53 AM 66.0 °F - 54.0 °F 65% 30.00 in 10.0 mi NNW 5.8 mph - N/A   Clear
10:53 AM 70.0 °F - 54.0 °F 57% 29.97 in 10.0 mi Variable 3.5 mph - N/A   Clear
11:53 AM 75.0 °F - 54.0 °F 48% 29.94 in 10.0 mi NNW 16.1 mph - N/A   Clear
12:53 PM 75.0 °F - 53.1 °F 46% 29.92 in 10.0 mi NNW 11.5 mph - N/A   Clear
1:53 PM 80.1 °F 80.0 °F 54.0 °F 40% 29.89 in 10.0 mi NW 9.2 mph 21.9 mph N/A   Clear
2:53 PM 78.1 °F - 52.0 °F 40% 29.87 in 10.0 mi WNW 10.4 mph - N/A   Clear
3:53 PM 77.0 °F - 52.0 °F 42% 29.86 in 10.0 mi WNW 12.7 mph 25.3 mph N/A   Clear
4:53 PM 79.0 °F - 51.1 °F 38% 29.83 in 10.0 mi WNW 16.1 mph 25.3 mph N/A   Clear
5:53 PM 77.0 °F - 50.0 °F 39% 29.82 in 10.0 mi West 19.6 mph 28.8 mph N/A   Clear
6:53 PM 73.0 °F - 52.0 °F 48% 29.82 in 10.0 mi WNW 16.1 mph 25.3 mph N/A   Clear
7:53 PM 72.0 °F - 53.1 °F 51% 29.81 in 10.0 mi WNW 17.3 mph 26.5 mph N/A   Clear
8:53 PM 70.0 °F - 51.1 °F 51% 29.82 in 10.0 mi West 8.1 mph - N/A   Clear
9:53 PM 70.0 °F - 51.1 °F 51% 29.81 in 10.0 mi West 10.4 mph - N/A   Clear
10:53 PM 68.0 °F - 51.1 °F 55% 29.80 in 10.0 mi SW 4.6 mph - N/A   Clear
11:53 PM 64.9 °F - 52.0 °F 63% 29.79 in 10.0 mi WNW 4.6 mph - N/A   Clear